CAPE
395 389 421 125 134 421 472 302 451 406 593 632 616 742 757 759 1005 1229 1526 1775 2103 1693 1386 1352 1497 1085 1200 1188 1059 1075 627 305 453 1079 711 481 710 831 641 622 565 500 659
329 409 401 169 236 468 558 468 432 512 486 502 591 635 645 641 949 1216 1287 1436 1987 1928 1428 1502 1374 1329 1165 1299 923 944 970 427 440 569 449 319 220 335 651 580 465 402 519
345 509 414 62 160 337 336 458 441 511 575 406 519 583 426 491 791 1135 1202 1215 1525 1738 1507 1364 1403 1256 1061 930 975 633 756 923 564 230 285 288 487 793 857 791 510 327 283
361 197 170 145 217 181 390 618 579 525 427 439 352 315 318 267 438 674 791 849 1058 1481 1495 1737 1737 1521 1042 922 792 654 709 687 662 941 1037 1108 1000 902 931 917 569 316 158
545 240 331 285 471 258 217 380 676 426 309 420 400 432 365 269 317 178 260 412 694 969 750 1233 2266 2305 1371 806 770 894 960 1285 1609 1381 1114 984 875 991 876 830 643 354 147
534 391 173 527 448 363 191 42 449 376 172 379 423 417 381 324 357 342 294 423 350 395 277 256 342 1079 1450 894 1472 1363 1488 1632 1808 1443 1402 1417 1377 1288 1045 878 628 413 189
503 321 243 482 452 368 418 192 250 149 166 173 214 268 212 386 412 489 434 476 566 621 580 615 531 351 408 1186 1790 1822 1673 1246 1428 1724 1800 1797 1693 1456 1225 847 714 447 261
511 521 666 798 707 64 386 252 239 68 111 175 158 145 59 100 331 292 346 423 541 754 842 769 821 783 755 504 516 1202 1826 1654 1293 1173 1695 1820 1726 1313 1025 691 521 438 258
394 179 562 735 378 73 457 435 38 26 55 116 111 45 40 8 114 256 218 241 299 401 551 780 895 927 927 680 558 612 1461 1612 1663 1050 1319 1746 1751 1361 1042 749 491 371 445
924 535 658 802 719 231 475 313 97 21 16 27 226 138 172 33 171 36 158 188 218 359 448 495 490 789 885 821 735 808 922 1071 1574 1528 1168 1610 1752 1635 1023 742 708 534 432
1304 910 814 886 727 647 547 633 704 42 20 54 357 65 128 155 91 110 220 217 233 261 338 451 509 488 462 547 592 554 966 1123 1136 1425 1408 1383 1623 1642 917 809 774 651 279
1376 1188 985 821 924 711 669 726 945 804 866 209 502 797 477 39 111 326 202 419 318 299 324 325 404 474 450 476 557 743 1084 1113 1091 976 917 926 994 1215 871 1026 1028 793 619
989 1400 1164 1005 968 900 715 629 724 975 917 830 859 934 491 646 864 269 240 331 240 311 352 341 349 403 469 470 525 564 773 840 760 690 764 923 1004 1012 1001 1181 1476 1405 934
1013 1057 1244 1164 1227 726 886 651 1052 1145 937 876 915 1251 1238 926 610 605 354 164 88 135 202 481 534 499 576 742 513 468 524 564 611 792 954 1269 1407 1450 1326 1249 1264 1309 1371
1008 1186 1300 1418 1391 1098 845 1019 1050 1116 1123 1384 1246 1142 885 968 917 374 823 325 88 79 29 142 346 361 700 897 796 680 652 690 644 926 1533 1668 1690 1698 1713 1702 1694 1845 1987
885 995 1347 1541 1531 1463 1182 1095 1199 1190 1050 1014 1225 1258 1214 1023 877 483 851 1131 325 187 181 206 337 399 757 1009 855 1250 1949 1693 1641 1799 1797 1961 2053 1898 1804 1863 1842 1952 2616
1020 913 996 1484 1513 1661 1404 1132 1107 1099 1009 983 909 1059 1121 997 1129 1092 800 1084 1101 1251 1110 864 823 1061 1193 1912 1915 1663 1830 2295 2293 1798 1891 2006 1826 1635 1920 2208 2698 2705 2826
615 1202 1026 1165 1311 1464 1508 1158 1112 1242 1222 989 1141 1066 932 921 1414 1666 1575 1072 1111 959 1107 1027 1023 1339 2090 1835 1588 1810 2306 2573 1970 2191 1426 1503 1368 2073 2458 2526 2693 2913 3006
174 608 913 1129 1275 1267 1346 1299 1257 1121 1284 1128 1112 1513 1514 1253 1073 1208 1441 1440 1335 1505 1408 1678 2013 2032 1576 1430 1867 2399 2604 2512 1967 1314 1698 1543 1556 2253 2533 2713 2957 2990 2990
332 216 906 1181 1315 1308 1334 1332 1257 1194 1236 1214 1333 1301 1403 1380 1527 1314 1081 1324 1644 1744 1676 1874 1862 1839 1837 1996 2175 2365 2317 1788 1519 1763 1882 1580 1808 2429 2651 2701 2886 2974 2939
226 287 347 1215 1412 1418 1433 1374 1466 1521 1622 1573 1664 1572 1426 1397 1475 1712 1739 1501 1846 1880 1857 1950 1961 1991 2068 2147 2142 2327 2076 1548 1669 2013 1740 1639 2140 2569 2673 2773 2795 2838 2440
85 139 220 275 1105 1436 1405 1367 1408 1586 1727 1653 1433 1359 1392 1485 1614 1717 1834 2048 2198 2171 2006 1935 1883 1873 1829 2025 2051 1877 1515 1652 2193 2132 1743 1867 2242 2594 2698 2773 2605 2410 1587
44 10 107 358 390 744 1289 1461 1445 1430 1250 1120 1187 1248 1229 1240 1424 1542 1705 1738 1791 1923 2039 2057 2064 2040 2003 1905 1739 1609 1737 2316 2551 1960 1842 2117 2338 2640 2725 2750 2620 1782 1717
241 182 152 63 490 571 839 1115 1359 1402 1273 1209 1136 1142 1197 1211 1351 1594 1735 1734 1742 1791 1756 1689 1652 1596 1676 1737 1927 2325 2476 2628 1922 1710 2170 2206 2453 2875 3040 2790 2551 1791 1729
670 562 512 471 354 215 820 1207 1335 1355 1352 1332 1312 1310 1251 1316 1387 1505 1580 1517 1474 1603 1596 1526 1537 1541 1611 1818 2221 2270 2239 1839 1712 2067 2195 2155 2703 3075 2645 2618 2418 2367 1477
1025 1009 919 864 793 718 391 661 1293 1194 1280 1366 1334 1199 1259 1331 1439 1445 1365 1293 1153 1178 1339 1354 1256 1291 1264 1249 1345 1602 1855 1945 2098 2296 2199 2710 2879 2719 2771 2339 2376 2237 1081
CIN
-83 -87 -108 -141 -105 -120 -85 -74 -21 -30 -54 -68 -84 -90 -48 -95 -63 -42 -5 0 0 0 -5 -5 0 -13 0 0 -3 -1 -22 -46 -20 -1 -1 -2 0 0 0 0 0 0 -2
-36 -94 -69 -106 -79 -76 -80 -73 -51 -81 -81 -36 -68 -71 -46 -112 -84 -55 -31 -8 0 0 -5 -1 0 -2 -6 0 -4 0 -1 -45 -32 -7 -11 -26 -54 -19 0 -3 -9 -13 -3
-51 -53 -53 -31 -50 -51 -71 -72 -33 -50 -73 -53 -58 -28 -80 -134 -98 -59 -48 -43 -15 0 -3 -5 -3 -4 -11 -9 -6 -39 -17 0 -31 -108 -82 -83 -39 -12 -9 -14 -28 -42 -38
-56 -61 -72 -28 -38 -80 -54 -35 -52 -63 -47 -52 -51 -7 -18 -12 -130 -99 -88 -87 -65 -30 -18 -4 -2 -1 -10 -25 -42 -64 -53 -63 -68 -26 -16 -14 -19 -26 -22 -18 -40 -59 -75
-35 -22 -34 -58 -86 -99 -60 -31 -66 -40 -20 -33 -23 -19 -24 -22 -24 -48 -88 -135 -102 -76 -76 -46 0 0 -13 -72 -84 -65 -62 -22 -2 -14 -32 -39 -51 -36 -43 -40 -50 -75 -109
-41 -22 -55 -36 -51 -49 -56 -90 -48 -43 -19 -29 -28 -33 -33 -35 -29 -33 -44 -29 -38 -69 -114 -211 -208 -77 -28 -109 -27 -41 -20 -13 -5 -36 -36 -34 -35 -33 -46 -52 -65 -80 -107
-45 -57 -18 -102 -56 -16 -58 -32 -48 -56 -35 -35 -21 -14 -27 -37 -46 -45 -66 -71 -63 -60 -80 -90 -116 -175 -213 -121 -34 -33 -49 -116 -78 -37 -37 -30 -33 -47 -54 -79 -73 -94 -111
-26 -35 -55 -61 -41 -20 -53 -88 -35 -83 -36 -21 -39 -35 -76 -87 -44 -90 -97 -106 -123 -105 -110 -137 -120 -155 -178 -210 -346 -182 -86 -109 -152 -165 -86 -63 -62 -97 -109 -133 -130 -118 -136
-25 -91 -52 -63 -24 -32 -60 -29 -40 -21 -105 -42 -57 -96 -117 -132 -107 -90 -135 -138 -141 -181 -170 -191 -191 -183 -201 -239 -304 -330 -187 -168 -151 -223 -176 -107 -96 -119 -134 -147 -172 -174 -116
-22 -26 -53 -55 -41 -101 -33 -17 -41 -15 -22 -32 -101 -91 -61 -128 -80 -148 -109 -133 -198 -203 -211 -143 -208 -259 -252 -254 -285 -349 -354 -323 -219 -207 -219 -145 -112 -107 -151 -174 -151 -160 -143
-25 -16 -35 -43 -29 -35 -29 -44 -39 -26 -62 -76 -35 -90 -116 -95 -89 -93 -89 -111 -131 -158 -159 -143 -170 -192 -204 -275 -308 -335 -378 -347 -343 -269 -233 -202 -141 -112 -184 -179 -164 -158 -210
-19 -8 -24 -41 -28 -43 -24 -31 -27 -37 -12 -113 -53 -51 -33 -131 -119 -66 -91 -71 -109 -134 -161 -163 -152 -180 -212 -124 -115 -426 -360 -370 -378 -385 -387 -348 -287 -204 -219 -144 -125 -151 -35
-61 -25 -21 -37 -47 -40 -37 -26 -54 -29 -29 -42 -61 -36 -45 -36 -46 -89 -108 -104 -114 -126 -159 -148 -160 -147 -167 -127 -119 -129 -430 -430 -437 -241 -115 -104 -81 -57 -114 -192 -122 -96 -85
-63 -74 -34 -20 -34 -65 -46 -67 -45 -29 -68 -53 -63 -59 -54 -64 -95 -51 -84 -112 -149 -138 -143 -170 -156 -115 -118 -115 -153 -303 -136 -156 -155 -111 -109 -77 -60 -49 -34 -32 -16 -10 -5
-65 -69 -82 -45 -29 -21 -66 -33 -53 -42 -53 -48 -42 -53 -59 -76 -81 -77 -69 -96 -149 -158 -187 -171 -116 -168 -149 -134 -146 -149 -156 -190 -205 -140 -88 -71 -68 -54 -42 -34 -24 -10 -6
-42 -49 -68 -57 -32 -28 -14 -51 -31 -30 -33 -69 -57 -65 -61 -72 -79 -102 -101 -30 -117 -166 -162 -162 -132 -166 -158 -149 -161 -121 -61 -106 -108 -79 -92 -78 -61 -74 -69 -43 -42 -41 -8
-37 -44 -111 -68 -54 -29 -21 -47 -47 -36 -44 -51 -49 -40 -47 -43 -66 -63 -69 -85 -61 -42 -77 -108 -122 -108 -108 -68 -61 -72 -97 -45 -42 -96 -109 -97 -136 -160 -98 -40 -7 -13 -18
-74 -25 -30 -105 -69 -44 -21 -42 -63 -44 -28 -41 -41 -38 -53 -58 -59 -32 -33 -49 -58 -90 -110 -133 -128 -118 -67 -88 -127 -115 -65 -39 -85 -66 -248 -163 -206 -66 -15 -27 -16 -11 -11
-39 -12 -38 -29 -66 -68 -60 -22 -46 -53 -34 -34 -35 -20 -19 -14 -47 -46 -24 -20 -23 -30 -48 -57 -61 -80 -138 -144 -116 -65 -48 -62 -118 -239 -135 -181 -159 -48 -7 -13 -9 -12 -26
-108 -181 -113 -90 -87 -79 -97 -56 -57 -55 -45 -35 -26 -49 -39 -33 -18 -19 -48 -30 -22 -23 -35 -49 -75 -88 -99 -109 -82 -67 -107 -165 -225 -154 -139 -185 -118 -33 -12 -15 -16 -28 -38
-176 -128 -169 -77 -38 -57 -61 -77 -99 -66 -36 -35 -32 -30 -35 -41 -40 -17 -10 -26 -7 -7 -18 -29 -55 -80 -104 -93 -79 -73 -120 -207 -173 -164 -229 -207 -92 -25 -14 -11 -28 -33 -87
-250 -200 -159 -182 -77 -35 -25 -51 -56 -49 -44 -43 -56 -72 -76 -74 -60 -50 -36 -17 -8 -8 -9 -16 -48 -79 -132 -109 -110 -124 -193 -180 -154 -143 -247 -215 -89 -23 -9 -12 -34 -64 -163
-74 -224 -266 -196 -180 -111 -57 -32 -24 -18 -28 -54 -71 -77 -86 -121 -105 -74 -49 -42 -35 -18 -12 -20 -36 -67 -83 -96 -123 -144 -134 -88 -63 -164 -199 -148 -74 -26 -19 -15 -24 -130 -144
-40 -92 -99 -252 -202 -193 -127 -73 -40 -26 -22 -39 -57 -85 -96 -103 -121 -82 -52 -50 -47 -42 -49 -43 -56 -100 -93 -102 -56 -38 -51 -62 -160 -167 -92 -138 -52 -12 -7 -17 -30 -117 -126
-20 -45 -94 -91 -105 -285 -176 -104 -56 -31 -20 -31 -43 -59 -66 -111 -128 -120 -77 -72 -80 -72 -71 -71 -73 -90 -97 -76 -38 -47 -78 -162 -204 -132 -79 -103 -23 -8 -27 -24 -33 -43 -155
-31 -31 -45 -68 -93 -93 -162 -182 -87 -64 -40 -43 -58 -93 -97 -84 -85 -79 -61 -53 -102 -160 -117 -101 -118 -124 -156 -140 -134 -130 -116 -118 -96 -110 -82 -41 -30 -32 -34 -64 -33 -43 -218
Wind_Speed
11 9 8 10 11 13 13 9 7 9 18 18 15 14 16 13 14 17 20 18 17 19 20 21 21 23 24 25 26 25 23 24 25 25 22 22 21 22 21 21 21 18 18
10 11 10 13 14 15 16 12 12 12 16 15 11 13 14 13 15 16 19 21 22 24 27 27 27 28 28 28 27 27 26 26 26 26 27 26 26 25 24 22 21 19 19
12 11 13 nan 15 16 18 15 12 16 15 15 13 10 10 10 15 18 22 23 24 28 29 29 28 28 29 29 30 30 30 31 32 32 31 30 29 29 26 25 24 24 22
11 12 13 15 14 16 16 14 12 15 15 15 13 11 10 12 16 23 24 25 24 25 28 28 29 30 31 33 32 34 35 35 34 33 32 33 32 28 24 23 23 23 22
10 11 11 12 11 12 16 14 13 13 13 19 12 13 13 18 19 22 25 25 24 23 23 27 31 32 35 34 35 37 36 36 36 35 35 32 29 28 26 25 25 25 25
12 12 11 10 8 10 13 nan 14 15 12 16 16 16 18 20 20 21 23 23 21 22 23 25 28 29 34 38 36 35 38 36 33 33 30 30 31 30 29 29 28 28 29
13 12 14 11 9 8 12 9 12 14 16 15 14 19 19 19 20 18 17 20 20 22 22 24 28 26 28 35 36 37 38 36 33 31 32 32 32 32 31 30 30 30 31
11 12 14 11 11 nan 11 9 9 nan 15 14 12 14 nan 20 18 17 15 17 19 20 23 27 26 25 27 25 30 34 32 32 33 34 33 32 32 32 33 34 35 36 37
11 13 14 13 13 nan 11 11 nan nan nan 15 13 nan nan nan 16 15 14 14 19 19 25 26 24 23 24 23 26 28 29 30 32 33 33 32 32 34 35 39 40 41 42
11 11 12 15 14 12 13 12 nan nan nan nan 13 13 15 nan 11 nan 12 11 15 17 21 23 21 19 21 20 24 28 28 28 28 31 31 32 31 36 39 39 42 43 44
11 12 12 13 14 14 12 12 13 nan nan nan 12 nan 12 14 nan 8 12 14 12 14 17 18 16 17 18 18 17 21 25 26 26 28 31 32 34 38 40 43 43 44 45
9 9 10 9 11 12 12 11 13 12 10 9 13 14 11 nan 13 9 12 17 14 16 17 18 17 16 15 16 21 23 22 23 23 27 31 34 37 39 43 44 44 45 47
10 8 6 7 8 11 10 8 9 11 10 11 9 11 12 11 12 10 10 16 17 17 17 15 17 15 13 13 16 19 17 17 23 27 30 31 38 44 46 45 45 45 46
8 7 5 4 6 9 9 8 7 8 9 11 10 9 11 9 11 11 12 10 nan 14 13 14 12 11 12 11 11 12 12 20 24 25 27 30 37 41 41 42 42 41 44
10 8 5 3 5 6 7 8 8 8 8 10 10 9 12 9 7 10 9 7 nan nan nan 11 8 8 7 6 9 9 10 15 18 20 22 27 32 34 34 36 40 42 44
14 10 5 3 4 5 4 5 6 8 8 8 9 9 9 9 10 10 9 6 4 2 6 5 6 5 5 4 5 5 8 12 17 17 21 25 28 27 28 33 34 37 40
13 11 7 3 2 2 3 3 4 6 8 8 5 8 10 9 8 9 9 7 5 4 2 6 2 3 4 3 4 4 6 7 8 13 15 22 21 23 26 30 31 34 35
15 12 9 5 4 2 2 1 1 1 4 5 7 4 6 8 8 8 8 7 5 4 5 2 2 1 2 0 1 2 2 4 7 11 16 15 16 19 24 26 28 27 28
17 16 13 9 7 5 7 3 3 3 1 2 4 4 4 3 8 10 10 11 10 9 7 5 6 7 5 4 5 4 2 4 9 7 11 14 16 18 20 21 22 26 28
19 18 17 14 11 9 8 8 7 6 5 2 1 2 1 1 3 9 11 10 12 12 11 10 9 9 8 7 7 6 5 6 5 7 12 16 14 16 20 20 20 26 26
18 19 18 17 15 14 12 11 11 10 6 4 4 4 5 4 3 5 14 15 15 15 15 13 13 14 13 12 10 12 10 8 8 13 15 14 17 18 20 21 24 27 28
nan 23 18 15 16 14 12 12 13 12 10 7 6 7 7 8 6 4 4 9 15 17 16 17 17 14 13 13 14 15 13 14 10 15 17 13 19 18 22 25 30 28 27
nan nan 20 19 13 11 12 13 12 12 10 10 10 9 10 11 12 11 9 6 10 14 13 18 15 16 14 16 17 17 16 17 17 13 20 15 22 20 24 28 28 28 25
26 24 22 nan 18 14 14 14 14 12 13 11 11 12 11 10 14 15 13 12 13 16 20 21 17 15 14 13 18 17 17 19 20 17 23 22 24 22 29 30 29 29 25
31 27 25 23 18 17 19 19 20 15 13 11 14 13 13 12 12 15 14 12 11 12 20 18 17 17 14 17 17 24 20 23 20 22 25 26 28 28 30 32 30 29 25
33 34 30 27 22 20 22 20 22 18 12 14 13 14 14 13 14 16 16 15 12 11 20 25 26 24 21 22 20 24 23 22 20 17 26 29 31 32 28 31 30 25 22
Wind_Direction
40 49 79 69 86 84 96 100 83 96 109 103 94 91 90 89 91 92 94 70 75 77 76 76 79 81 83 85 86 88 90 89 91 94 90 90 90 87 85 82 81 76 73
31 61 67 89 105 93 95 96 93 99 112 108 90 89 96 105 97 96 97 92 79 81 83 86 86 84 85 86 86 86 83 82 83 86 87 87 84 82 76 72 68 63 61
52 64 81 nan 86 90 98 97 107 106 103 116 99 104 106 104 109 103 98 95 92 84 86 90 89 89 88 88 87 85 84 80 82 82 81 80 78 76 74 65 62 52 44
51 54 68 76 83 87 91 95 84 87 102 99 105 105 119 112 106 102 99 99 99 100 100 94 90 90 92 90 88 86 84 83 82 82 79 75 74 74 69 59 50 43 33
52 55 59 68 78 78 87 99 89 84 95 105 108 114 119 113 108 104 103 102 100 105 110 106 101 97 95 92 87 85 84 79 75 76 76 73 68 66 61 55 50 42 34
70 61 65 65 72 91 94 nan 103 107 104 108 120 121 115 107 107 109 112 110 107 107 108 108 110 107 96 91 90 86 83 81 78 72 70 67 66 63 60 55 47 42 37
78 75 82 83 90 89 97 104 113 116 123 115 119 117 118 108 107 107 104 102 107 108 110 111 113 104 99 92 88 87 85 81 75 73 66 61 58 55 51 49 47 43 37
85 84 87 94 92 nan 95 96 101 nan 120 117 120 127 nan 124 121 106 105 104 102 108 116 116 107 97 98 95 91 88 84 78 74 69 63 57 53 51 49 45 41 36 33
80 76 82 81 82 nan 92 91 nan nan nan 119 115 nan nan nan 132 126 113 102 106 110 118 120 110 99 95 92 91 87 84 72 66 65 63 58 52 49 46 41 35 31 28
92 81 70 79 79 82 90 96 nan nan nan nan 131 125 136 nan 124 nan 120 117 113 113 121 122 116 107 100 96 89 82 77 72 64 61 60 57 55 49 46 40 33 30 27
99 89 72 61 68 73 76 86 93 nan nan nan 124 nan 136 131 nan 112 116 121 125 115 116 116 116 109 102 92 89 83 77 70 63 55 53 55 54 50 45 40 34 31 30
119 100 86 74 66 67 64 71 90 97 105 118 132 134 133 nan 111 113 114 115 106 111 110 109 103 100 95 87 79 75 72 63 56 53 50 49 50 48 43 39 31 32 31
149 113 99 88 75 68 60 55 74 95 105 122 137 141 143 133 130 129 127 118 119 118 120 109 101 94 95 87 75 69 74 69 62 57 51 46 45 41 37 36 32 32 32
155 157 132 99 76 63 66 68 85 99 105 122 141 148 141 137 140 146 129 126 nan 129 132 124 121 103 95 88 78 67 63 64 63 59 53 49 45 41 34 31 31 32 30
179 198 180 132 87 74 61 72 78 74 100 120 136 151 154 154 148 142 129 115 nan nan nan 120 113 100 97 98 78 59 59 69 71 61 55 52 48 40 34 29 26 27 30
195 219 214 138 116 108 76 71 87 89 73 109 136 141 165 171 162 158 147 142 151 107 130 112 128 118 109 106 95 77 66 64 60 55 48 50 44 37 32 30 25 24 26
204 210 223 199 169 127 87 88 89 81 76 82 124 140 139 173 178 177 172 185 213 209 185 151 138 129 121 141 128 72 57 51 34 46 40 43 33 29 27 24 21 19 22
218 209 223 240 248 262 271 21 47 55 61 72 80 92 144 181 171 184 190 192 210 234 249 197 217 233 344 214 66 108 147 2 7 19 33 29 20 20 20 19 16 13 15
222 225 220 227 243 269 277 267 275 257 264 43 56 55 69 220 190 201 203 200 209 234 250 248 227 249 234 234 227 249 288 340 348 2 19 13 12 17 20 18 6 6 7
228 225 228 227 230 240 264 280 270 273 255 238 306 343 5 304 231 211 213 215 216 217 230 234 234 243 257 249 259 261 236 301 308 339 353 0 4 14 20 13 1 352 344
230 235 232 228 232 239 239 252 260 267 267 250 266 296 296 290 296 266 235 220 229 229 229 232 234 244 247 245 262 272 287 293 306 328 324 332 344 347 355 349 345 335 333
nan 237 245 245 238 235 249 262 254 256 264 257 263 277 292 302 283 278 268 235 237 239 234 241 245 245 244 256 262 265 279 282 269 307 301 331 335 342 343 334 329 327 332
nan nan 236 248 248 241 258 270 275 248 253 262 263 270 277 282 290 269 275 292 232 231 237 245 242 252 246 252 259 262 270 283 284 284 300 318 319 326 320 320 317 320 319
220 220 224 nan 244 245 265 273 278 254 244 248 266 272 282 286 280 279 269 267 269 250 242 244 248 251 256 246 268 266 266 274 279 286 304 321 308 315 309 313 309 309 313
225 220 220 224 226 234 270 280 273 259 246 243 251 265 277 287 285 289 275 268 262 253 249 252 248 251 255 257 261 262 266 274 278 297 300 308 309 314 313 309 310 305 307
226 222 218 221 224 225 248 268 275 262 260 248 249 259 284 292 286 285 278 274 276 269 261 245 241 241 251 260 279 288 278 278 286 289 303 314 314 316 315 310 307 302 310